Time,TemperatureF,DewpointF,PressureIn,WindDirection,WindDirectionDegrees,WindSpeedMPH,WindSpeedGustMPH,Humidity,HourlyPrecipIn,Conditions,Clouds,dailyrainin,SoftwareType,DateUTC
2013-09-06 00:02:00,87.1,51.0,27.37,South,180,0.7,0.7,29,0.00,,,0.00,WUHU216HW,2013-09-06 07:02:00,
2013-09-06 00:07:00,87.1,51.0,27.37,SE,135,0.4,0.7,29,0.00,,,0.00,WUHU216HW,2013-09-06 07:07:00,
2013-09-06 00:12:00,87.1,51.0,27.37,NE,45,0.0,0.4,29,0.00,,,0.00,WUHU216HW,2013-09-06 07:12:00,
2013-09-06 00:17:00,87.1,51.0,27.37,NE,45,0.0,0.0,29,0.00,,,0.00,WUHU216HW,2013-09-06 07:17:00,
2013-09-06 00:22:00,86.9,50.8,27.37,NNE,23,1.1,1.1,29,0.00,,,0.00,WUHU216HW,2013-09-06 07:22:00,
2013-09-06 00:27:00,86.8,50.6,27.37,NNE,23,1.3,1.6,29,0.00,,,0.00,WUHU216HW,2013-09-06 07:27:00,
2013-09-06 00:32:00,86.8,51.7,27.37,North,0,0.0,1.6,30,0.00,,,0.00,WUHU216HW,2013-09-06 07:32:00,
2013-09-06 00:37:00,86.4,51.4,27.37,North,0,0.4,1.3,30,0.00,,,0.00,WUHU216HW,2013-09-06 07:37:00,
2013-09-06 00:42:00,86.4,51.4,27.37,NNE,23,0.0,1.3,30,0.00,,,0.00,WUHU216HW,2013-09-06 07:42:00,
2013-09-06 00:47:00,86.2,51.3,27.37,West,270,0.0,0.7,30,0.00,,,0.00,WUHU216HW,2013-09-06 07:47:00,
2013-09-06 00:52:00,86.0,51.9,27.37,West,270,0.0,0.0,31,0.00,,,0.00,WUHU216HW,2013-09-06 07:52:00,
2013-09-06 00:57:00,86.0,51.9,27.37,West,270,0.0,0.0,31,0.00,,,0.00,WUHU216HW,2013-09-06 07:57:00,
2013-09-06 01:02:00,85.9,51.8,27.37,West,270,0.0,0.0,31,0.00,,,0.00,WUHU216HW,2013-09-06 08:02:00,
2013-09-06 01:07:00,85.5,52.2,27.37,NNW,338,0.0,0.0,32,0.00,,,0.00,WUHU216HW,2013-09-06 08:07:00,
2013-09-06 01:12:00,85.3,52.0,27.37,NNW,338,0.0,0.0,32,0.00,,,0.00,WUHU216HW,2013-09-06 08:12:00,
2013-09-06 01:17:00,85.0,51.8,27.36,NNE,23,1.6,1.6,32,0.00,,,0.00,WUHU216HW,2013-09-06 08:17:00,
2013-09-06 01:22:00,84.4,52.0,27.37,NE,45,0.0,1.6,33,0.00,,,0.00,WUHU216HW,2013-09-06 08:22:00,
2013-09-06 01:27:00,84.2,51.8,27.37,ENE,68,0.0,0.9,33,0.00,,,0.00,WUHU216HW,2013-09-06 08:27:00,
2013-09-06 01:32:00,84.2,51.8,27.37,NE,45,0.0,0.0,33,0.00,,,0.00,WUHU216HW,2013-09-06 08:32:00,
2013-09-06 01:37:00,84.1,51.8,27.37,NE,45,0.0,0.0,33,0.00,,,0.00,WUHU216HW,2013-09-06 08:37:00,
2013-09-06 01:42:00,84.1,51.8,27.37,NE,45,0.0,0.0,33,0.00,,,0.00,WUHU216HW,2013-09-06 08:42:00,
2013-09-06 02:00:00,83.2,52.5,27.36,ESE,113,0.0,0.0,35,0.00,,,0.00,WUHU216HW,2013-09-06 09:00:00,
2013-09-06 02:05:00,82.8,52.2,27.36,ESE,113,0.0,0.0,35,0.00,,,0.00,WUHU216HW,2013-09-06 09:05:00,
2013-09-06 02:10:00,82.6,52.0,27.36,ESE,113,0.0,0.0,35,0.00,,,0.00,WUHU216HW,2013-09-06 09:10:00,
2013-09-06 02:15:00,82.4,51.8,27.36,ESE,113,0.0,0.0,35,0.00,,,0.00,WUHU216HW,2013-09-06 09:15:00,
2013-09-06 02:20:00,82.3,52.5,27.36,ESE,113,0.0,0.0,36,0.00,,,0.00,WUHU216HW,2013-09-06 09:20:00,
2013-09-06 02:25:00,82.3,53.3,27.36,ESE,113,0.0,0.0,37,0.00,,,0.00,WUHU216HW,2013-09-06 09:25:00,
2013-09-06 02:30:00,82.3,53.3,27.36,ESE,113,0.0,0.0,37,0.00,,,0.00,WUHU216HW,2013-09-06 09:30:00,
2013-09-06 02:50:00,80.8,52.8,27.36,East,90,0.0,0.0,38,0.00,,,0.00,WUHU216HW,2013-09-06 09:50:00,
2013-09-06 02:55:00,80.6,53.4,27.36,East,90,0.0,0.0,39,0.00,,,0.00,WUHU216HW,2013-09-06 09:55:00,
2013-09-06 03:00:00,80.6,53.4,27.36,ENE,68,0.0,0.0,39,0.00,,,0.00,WUHU216HW,2013-09-06 10:00:00,
2013-09-06 03:05:00,80.5,53.3,27.36,NE,45,0.0,0.0,39,0.00,,,0.00,WUHU216HW,2013-09-06 10:05:00,
2013-09-06 03:10:00,80.3,53.1,27.36,NE,45,0.0,0.0,39,0.00,,,0.00,WUHU216HW,2013-09-06 10:10:00,
2013-09-06 03:15:00,79.9,53.6,27.36,SE,135,0.0,0.2,40,0.00,,,0.00,WUHU216HW,2013-09-06 10:15:00,
2013-09-06 03:20:00,79.7,53.4,27.35,ESE,113,0.0,0.2,40,0.00,,,0.00,WUHU216HW,2013-09-06 10:20:00,
2013-09-06 03:25:00,79.6,53.8,27.35,SE,135,0.4,0.4,41,0.00,,,0.00,WUHU216HW,2013-09-06 10:25:00,
2013-09-06 03:30:00,79.4,53.6,27.35,NE,45,0.2,0.4,41,0.00,,,0.00,WUHU216HW,2013-09-06 10:30:00,
2013-09-06 03:35:00,79.2,53.5,27.35,NE,45,0.0,0.4,41,0.00,,,0.00,WUHU216HW,2013-09-06 10:35:00,
2013-09-06 03:40:00,79.2,53.5,27.35,NE,45,0.0,0.4,41,0.00,,,0.00,WUHU216HW,2013-09-06 10:40:00,
2013-09-06 03:45:00,79.0,53.4,27.35,NE,45,0.0,0.0,41,0.00,,,0.00,WUHU216HW,2013-09-06 10:45:00,
2013-09-06 03:50:00,78.8,53.2,27.35,NE,45,0.0,0.0,41,0.00,,,0.00,WUHU216HW,2013-09-06 10:50:00,
2013-09-06 03:55:00,78.7,53.7,27.35,NE,45,0.0,0.0,42,0.00,,,0.00,WUHU216HW,2013-09-06 10:55:00,
2013-09-06 04:00:00,78.5,53.5,27.35,NE,45,0.0,0.0,42,0.00,,,0.00,WUHU216HW,2013-09-06 11:00:00,
2013-09-06 04:05:00,78.5,53.5,27.35,NE,45,0.0,0.0,42,0.00,,,0.00,WUHU216HW,2013-09-06 11:05:00,
2013-09-06 04:10:00,78.3,53.3,27.35,NE,45,0.0,0.0,42,0.00,,,0.00,WUHU216HW,2013-09-06 11:10:00,
2013-09-06 04:15:00,78.1,53.1,27.35,NE,45,0.0,0.0,42,0.00,,,0.00,WUHU216HW,2013-09-06 11:15:00,
2013-09-06 04:20:00,78.1,53.7,27.35,NE,45,0.0,0.0,43,0.00,,,0.00,WUHU216HW,2013-09-06 11:20:00,
2013-09-06 04:25:00,77.9,53.6,27.35,NE,45,0.0,0.0,43,0.00,,,0.00,WUHU216HW,2013-09-06 11:25:00,
2013-09-06 04:30:00,77.8,54.0,27.36,NE,45,0.0,0.0,44,0.00,,,0.00,WUHU216HW,2013-09-06 11:30:00,
2013-09-06 04:35:00,77.4,53.7,27.36,NE,45,0.0,0.0,44,0.00,,,0.00,WUHU216HW,2013-09-06 11:35:00,
2013-09-06 04:40:00,77.4,53.7,27.36,NE,45,0.0,0.0,44,0.00,,,0.00,WUHU216HW,2013-09-06 11:40:00,
2013-09-06 04:45:00,77.0,54.0,27.36,NE,45,0.0,0.0,45,0.00,,,0.00,WUHU216HW,2013-09-06 11:45:00,
2013-09-06 04:50:00,76.9,53.8,27.36,North,0,0.9,0.9,45,0.00,,,0.00,WUHU216HW,2013-09-06 11:50:00,
2013-09-06 04:55:00,76.7,53.6,27.36,NNE,23,0.2,0.9,45,0.00,,,0.00,WUHU216HW,2013-09-06 11:55:00,
2013-09-06 05:00:00,76.7,54.3,27.36,ENE,68,0.0,0.4,46,0.00,,,0.00,WUHU216HW,2013-09-06 12:00:00,
2013-09-06 05:05:00,76.5,53.6,27.36,ENE,68,0.0,0.2,45,0.00,,,0.00,WUHU216HW,2013-09-06 12:05:00,
2013-09-06 05:10:00,76.5,54.1,27.36,ENE,68,0.0,0.0,46,0.00,,,0.00,WUHU216HW,2013-09-06 12:10:00,
2013-09-06 05:15:00,76.5,54.1,27.36,North,0,0.0,0.0,46,0.00,,,0.00,WUHU216HW,2013-09-06 12:15:00,
2013-09-06 05:20:00,76.3,54.0,27.36,North,0,0.0,0.0,46,0.00,,,0.00,WUHU216HW,2013-09-06 12:20:00,
2013-09-06 05:25:00,76.3,54.0,27.36,NNE,23,0.0,0.0,46,0.00,,,0.00,WUHU216HW,2013-09-06 12:25:00,
2013-09-06 05:30:00,76.1,53.8,27.36,NNE,23,0.0,0.0,46,0.00,,,0.00,WUHU216HW,2013-09-06 12:30:00,
2013-09-06 05:35:00,76.1,54.5,27.36,SE,135,0.0,0.0,47,0.00,,,0.00,WUHU216HW,2013-09-06 12:35:00,
2013-09-06 05:40:00,76.0,54.3,27.36,SE,135,0.0,0.0,47,0.00,,,0.00,WUHU216HW,2013-09-06 12:40:00,
2013-09-06 05:45:00,75.8,54.1,27.36,NE,45,0.0,0.4,47,0.00,,,0.00,WUHU216HW,2013-09-06 12:45:00,
2013-09-06 05:50:00,75.6,53.9,27.36,NE,45,0.0,0.4,47,0.00,,,0.00,WUHU216HW,2013-09-06 12:50:00,
2013-09-06 05:55:00,75.4,53.7,27.36,NE,45,0.0,0.0,47,0.00,,,0.00,WUHU216HW,2013-09-06 12:55:00,
2013-09-06 06:00:00,75.4,54.4,27.37,NE,45,0.0,0.0,48,0.00,,,0.00,WUHU216HW,2013-09-06 13:00:00,
2013-09-06 06:05:00,75.2,54.2,27.37,ESE,113,0.0,0.0,48,0.00,,,0.00,WUHU216HW,2013-09-06 13:05:00,
2013-09-06 06:10:00,75.2,54.2,27.37,SE,135,0.0,0.4,48,0.00,,,0.00,WUHU216HW,2013-09-06 13:10:00,
2013-09-06 06:15:00,75.2,54.2,27.37,SE,135,0.0,0.4,48,0.00,,,0.00,WUHU216HW,2013-09-06 13:15:00,
2013-09-06 06:20:00,75.1,54.0,27.38,ESE,113,0.4,0.4,48,0.00,,,0.00,WUHU216HW,2013-09-06 13:20:00,
2013-09-06 06:25:00,74.9,54.5,27.38,NNE,23,0.9,0.9,49,0.00,,,0.00,WUHU216HW,2013-09-06 13:25:00,
2013-09-06 06:30:00,74.9,54.5,27.38,North,0,1.1,1.1,49,0.00,,,0.00,WUHU216HW,2013-09-06 13:30:00,
2013-09-06 06:35:00,74.7,54.9,27.38,NNE,23,0.4,1.1,50,0.00,,,0.00,WUHU216HW,2013-09-06 13:35:00,
2013-09-06 06:36:00,74.7,54.3,27.38,North,0,0.4,0.4,49,0.00,,,0.00,WUHU216HW,2013-09-06 13:36:00,
2013-09-06 06:40:00,74.7,54.3,27.38,North,0,0.4,0.9,49,0.00,,,0.00,WUHU216HW,2013-09-06 13:40:00,
2013-09-06 06:45:00,74.7,54.3,27.38,North,0,0.4,0.4,49,0.00,,,0.00,WUHU216HW,2013-09-06 13:45:00,
2013-09-06 07:00:00,75.6,55.8,27.39,North,0,0.0,0.0,50,0.00,,,0.00,WUHU216HW,2013-09-06 14:00:00,
2013-09-06 07:05:00,75.8,55.9,27.38,North,0,0.0,0.0,50,0.00,,,0.00,WUHU216HW,2013-09-06 14:05:00,
2013-09-06 07:10:00,76.0,56.1,27.38,SE,135,0.0,0.0,50,0.00,,,0.00,WUHU216HW,2013-09-06 14:10:00,
2013-09-06 07:15:00,76.0,56.1,27.38,SE,135,0.0,0.0,50,0.00,,,0.00,WUHU216HW,2013-09-06 14:15:00,
2013-09-06 07:20:00,76.0,56.6,27.38,SE,135,0.0,0.0,51,0.00,,,0.00,WUHU216HW,2013-09-06 14:20:00,
2013-09-06 07:21:00,76.0,56.6,27.38,SE,135,0.0,0.0,51,0.00,,,0.00,WUHU216HW,2013-09-06 14:21:00,
2013-09-06 07:25:00,76.0,56.6,27.38,SE,135,0.0,0.0,51,0.00,,,0.00,WUHU216HW,2013-09-06 14:25:00,
2013-09-06 07:30:00,76.0,56.6,27.38,SE,135,0.0,0.0,51,0.00,,,0.00,WUHU216HW,2013-09-06 14:30:00,
2013-09-06 07:51:00,77.4,56.8,27.40,SW,225,0.4,0.4,49,0.00,,,0.00,WUHU216HW,2013-09-06 14:51:00,
2013-09-06 07:56:00,77.8,57.1,27.40,SW,225,0.0,0.4,49,0.00,,,0.00,WUHU216HW,2013-09-06 14:56:00,
2013-09-06 08:01:00,78.1,56.8,27.40,SE,135,0.4,0.7,48,0.00,,,0.00,WUHU216HW,2013-09-06 15:01:00,
2013-09-06 08:06:00,78.5,56.5,27.40,South,180,0.0,0.7,47,0.00,,,0.00,WUHU216HW,2013-09-06 15:06:00,
2013-09-06 08:11:00,78.8,56.3,27.40,SW,225,0.2,1.1,46,0.00,,,0.00,WUHU216HW,2013-09-06 15:11:00,
2013-09-06 08:16:00,79.6,56.3,27.40,SSE,158,0.0,1.1,45,0.00,,,0.00,WUHU216HW,2013-09-06 15:16:00,
2013-09-06 08:21:00,79.9,56.0,27.40,SSW,203,0.0,0.7,44,0.00,,,0.00,WUHU216HW,2013-09-06 15:21:00,
2013-09-06 08:26:00,80.5,55.9,27.40,SW,225,0.0,1.3,43,0.00,,,0.00,WUHU216HW,2013-09-06 15:26:00,
2013-09-06 08:31:00,81.0,56.3,27.40,SW,225,0.0,1.3,43,0.00,,,0.00,WUHU216HW,2013-09-06 15:31:00,
2013-09-06 08:36:00,81.5,56.3,27.39,SW,225,1.1,1.1,42,0.00,,,0.00,WUHU216HW,2013-09-06 15:36:00,
2013-09-06 08:41:00,82.1,56.7,27.40,WSW,248,0.4,1.1,42,0.00,,,0.00,WUHU216HW,2013-09-06 15:41:00,
2013-09-06 08:46:00,82.6,56.6,27.40,NNW,338,0.4,0.7,41,0.00,,,0.00,WUHU216HW,2013-09-06 15:46:00,
2013-09-06 08:51:00,83.2,57.1,27.40,NW,315,0.4,1.1,41,0.00,,,0.00,WUHU216HW,2013-09-06 15:51:00,
2013-09-06 08:56:00,83.7,57.0,27.40,NE,45,0.0,1.1,40,0.00,,,0.00,WUHU216HW,2013-09-06 15:56:00,
2013-09-06 09:01:00,84.2,56.6,27.40,SSE,158,0.0,1.6,39,0.00,,,0.00,WUHU216HW,2013-09-06 16:01:00,
2013-09-06 09:06:00,85.0,57.2,27.40,NE,45,0.7,1.6,39,0.00,,,0.00,WUHU216HW,2013-09-06 16:06:00,
2013-09-06 09:11:00,85.5,57.0,27.40,South,180,0.0,1.3,38,0.00,,,0.00,WUHU216HW,2013-09-06 16:11:00,
2013-09-06 09:16:00,86.0,57.4,27.40,SSE,158,0.4,1.3,38,0.00,,,0.00,WUHU216HW,2013-09-06 16:16:00,
2013-09-06 09:21:00,86.6,57.2,27.40,SSW,203,1.1,1.1,37,0.00,,,0.00,WUHU216HW,2013-09-06 16:21:00,
2013-09-06 09:26:00,87.1,57.6,27.40,NE,45,0.4,1.8,37,0.00,,,0.00,WUHU216HW,2013-09-06 16:26:00,
2013-09-06 09:31:00,87.8,57.4,27.40,SE,135,1.6,1.8,36,0.00,,,0.00,WUHU216HW,2013-09-06 16:31:00,
2013-09-06 09:36:00,88.4,57.9,27.40,SE,135,0.4,1.6,36,0.00,,,0.00,WUHU216HW,2013-09-06 16:36:00,
2013-09-06 09:41:00,88.9,57.5,27.40,SE,135,0.9,1.6,35,0.00,,,0.00,WUHU216HW,2013-09-06 16:41:00,
2013-09-06 09:46:00,89.3,57.9,27.40,ESE,113,0.0,1.1,35,0.00,,,0.00,WUHU216HW,2013-09-06 16:46:00,
2013-09-06 09:51:00,89.6,57.3,27.39,ESE,113,1.1,1.1,34,0.00,,,0.00,WUHU216HW,2013-09-06 16:51:00,
2013-09-06 09:56:00,89.6,57.3,27.39,NE,45,0.0,1.1,34,0.00,,,0.00,WUHU216HW,2013-09-06 16:56:00,
2013-09-06 10:01:00,89.8,57.5,27.40,SSE,158,1.1,1.1,34,0.00,,,0.00,WUHU216HW,2013-09-06 17:01:00,
2013-09-06 10:06:00,90.0,57.7,27.39,ENE,68,0.0,1.1,34,0.00,,,0.00,WUHU216HW,2013-09-06 17:06:00,
2013-09-06 10:11:00,90.4,57.3,27.40,SE,135,0.4,2.2,33,0.00,,,0.00,WUHU216HW,2013-09-06 17:11:00,
2013-09-06 10:16:00,90.5,57.3,27.39,ESE,113,0.4,2.2,33,0.00,,,0.00,WUHU216HW,2013-09-06 17:16:00,
2013-09-06 10:21:00,91.1,57.1,27.39,ESE,113,0.4,2.2,32,0.00,,,0.00,WUHU216HW,2013-09-06 17:21:00,
2013-09-06 10:26:00,91.4,57.4,27.39,SE,135,2.2,2.2,32,0.00,,,0.00,WUHU216HW,2013-09-06 17:26:00,
2013-09-06 10:31:00,91.8,56.9,27.39,East,90,0.2,2.2,31,0.00,,,0.00,WUHU216HW,2013-09-06 17:31:00,
2013-09-06 10:36:00,91.8,56.9,27.39,WSW,248,0.9,1.3,31,0.00,,,0.00,WUHU216HW,2013-09-06 17:36:00,
2013-09-06 10:41:00,92.2,57.2,27.39,ESE,113,1.1,1.3,31,0.00,,,0.00,WUHU216HW,2013-09-06 17:41:00,
2013-09-06 10:46:00,92.5,56.7,27.39,ESE,113,0.4,1.6,30,0.00,,,0.00,WUHU216HW,2013-09-06 17:46:00,
2013-09-06 10:51:00,92.7,56.8,27.39,ESE,113,1.1,1.8,30,0.00,,,0.00,WUHU216HW,2013-09-06 17:51:00,
2013-09-06 10:56:00,93.2,57.2,27.39,East,90,0.7,2.5,30,0.00,,,0.00,WUHU216HW,2013-09-06 17:56:00,
2013-09-06 11:01:00,93.4,57.4,27.39,SSE,158,1.1,2.5,30,0.00,,,0.00,WUHU216HW,2013-09-06 18:01:00,
2013-09-06 11:06:00,93.8,56.6,27.38,SW,225,0.7,1.8,29,0.00,,,0.00,WUHU216HW,2013-09-06 18:06:00,
2013-09-06 11:11:00,94.0,56.8,27.38,East,90,0.7,2.5,29,0.00,,,0.00,WUHU216HW,2013-09-06 18:11:00,
2013-09-06 11:16:00,94.5,57.2,27.38,North,0,0.9,3.1,29,0.00,,,0.00,WUHU216HW,2013-09-06 18:16:00,
2013-09-06 11:21:00,94.9,55.4,27.38,WSW,248,0.9,3.1,27,0.00,,,0.00,WUHU216HW,2013-09-06 18:21:00,
2013-09-06 11:26:00,95.2,56.8,27.38,SSE,158,1.6,4.3,28,0.00,,,0.00,WUHU216HW,2013-09-06 18:26:00,
2013-09-06 11:31:00,95.6,56.0,27.38,SSE,158,0.2,4.3,27,0.00,,,0.00,WUHU216HW,2013-09-06 18:31:00,
2013-09-06 11:36:00,95.6,56.0,27.38,SSW,203,0.0,2.0,27,0.00,,,0.00,WUHU216HW,2013-09-06 18:36:00,
2013-09-06 11:42:00,95.4,55.8,27.37,SSE,158,1.1,1.8,27,0.00,,,0.00,WUHU216HW,2013-09-06 18:42:00,
2013-09-06 11:47:00,95.6,57.1,27.37,SSE,158,1.3,2.2,28,0.00,,,0.00,WUHU216HW,2013-09-06 18:47:00,
2013-09-06 11:52:00,95.9,56.3,27.37,SSW,203,0.0,2.2,27,0.00,,,0.00,WUHU216HW,2013-09-06 18:52:00,
2013-09-06 11:57:00,96.1,56.4,27.37,WSW,248,1.1,2.0,27,0.00,,,0.00,WUHU216HW,2013-09-06 18:57:00,
2013-09-06 12:01:00,96.1,55.3,27.37,SW,225,2.0,2.0,26,0.00,,,0.00,WUHU216HW,2013-09-06 19:01:00,
2013-09-06 12:06:00,96.1,56.4,27.37,SSE,158,1.1,2.0,27,0.00,,,0.00,WUHU216HW,2013-09-06 19:06:00,
2013-09-06 12:11:00,96.1,56.4,27.36,South,180,0.0,1.3,27,0.00,,,0.00,WUHU216HW,2013-09-06 19:11:00,
2013-09-06 12:16:00,95.9,56.3,27.36,SE,135,1.1,1.8,27,0.00,,,0.00,WUHU216HW,2013-09-06 19:16:00,
2013-09-06 12:22:00,96.1,56.4,27.36,SE,135,1.1,1.8,27,0.00,,,0.00,WUHU216HW,2013-09-06 19:22:00,
2013-09-06 12:27:00,96.5,56.7,27.36,South,180,1.1,3.8,27,0.00,,,0.00,WUHU216HW,2013-09-06 19:27:00,
2013-09-06 12:32:00,96.8,57.0,27.36,SSW,203,1.8,3.8,27,0.00,,,0.00,WUHU216HW,2013-09-06 19:32:00,
2013-09-06 12:37:00,97.0,56.1,27.35,SSW,203,2.5,2.5,26,0.00,,,0.00,WUHU216HW,2013-09-06 19:37:00,
2013-09-06 12:42:00,97.2,56.3,27.35,SE,135,2.0,3.8,26,0.00,,,0.00,WUHU216HW,2013-09-06 19:42:00,
2013-09-06 12:47:00,97.4,56.3,27.35,SE,135,2.2,3.8,26,0.00,,,0.00,WUHU216HW,2013-09-06 19:47:00,
2013-09-06 12:52:00,97.9,56.9,27.35,SE,135,1.6,3.4,26,0.00,,,0.00,WUHU216HW,2013-09-06 19:52:00,
2013-09-06 12:57:00,98.3,56.1,27.35,WNW,293,1.8,3.4,25,0.00,,,0.00,WUHU216HW,2013-09-06 19:57:00,
2013-09-06 13:02:00,98.5,56.2,27.34,WNW,293,1.8,3.4,25,0.00,,,0.00,WUHU216HW,2013-09-06 20:02:00,
2013-09-06 13:07:00,99.0,56.6,27.34,SW,225,1.8,3.4,25,0.00,,,0.00,WUHU216HW,2013-09-06 20:07:00,
2013-09-06 13:12:00,99.4,57.0,27.34,SW,225,0.9,4.0,25,0.00,,,0.00,WUHU216HW,2013-09-06 20:12:00,
2013-09-06 13:17:00,99.7,55.0,27.33,WSW,248,4.7,4.7,23,0.00,,,0.00,WUHU216HW,2013-09-06 20:17:00,
2013-09-06 13:22:00,100.3,56.6,27.33,SSE,158,2.5,4.7,24,0.00,,,0.00,WUHU216HW,2013-09-06 20:22:00,
2013-09-06 13:27:00,100.8,57.1,27.32,WSW,248,3.1,4.0,24,0.00,,,0.00,WUHU216HW,2013-09-06 20:27:00,
2013-09-06 13:32:00,101.5,56.4,27.32,North,0,1.3,4.0,23,0.00,,,0.00,WUHU216HW,2013-09-06 20:32:00,
2013-09-06 13:37:00,101.5,56.4,27.32,SSW,203,1.8,5.6,23,0.00,,,0.00,WUHU216HW,2013-09-06 20:37:00,
2013-09-06 13:42:00,101.7,56.6,27.32,WSW,248,0.9,5.6,23,0.00,,,0.00,WUHU216HW,2013-09-06 20:42:00,
2013-09-06 13:47:00,101.9,55.6,27.32,SE,135,1.8,6.3,22,0.00,,,0.00,WUHU216HW,2013-09-06 20:47:00,
2013-09-06 13:52:00,101.7,55.4,27.32,SW,225,2.2,6.3,22,0.00,,,0.00,WUHU216HW,2013-09-06 20:52:00,
2013-09-06 13:57:00,101.2,55.1,27.32,ENE,68,1.1,3.1,22,0.00,,,0.00,WUHU216HW,2013-09-06 20:57:00,
2013-09-06 14:02:00,99.7,56.2,27.32,NNW,338,8.1,8.1,24,0.00,,,0.00,WUHU216HW,2013-09-06 21:02:00,
2013-09-06 14:07:00,98.3,56.1,27.31,NW,315,3.1,8.1,25,0.00,,,0.00,WUHU216HW,2013-09-06 21:07:00,
2013-09-06 14:12:00,97.4,56.3,27.31,North,0,6.0,9.2,26,0.00,,,0.00,WUHU216HW,2013-09-06 21:12:00,
2013-09-06 14:17:00,96.5,55.6,27.31,NNW,338,2.7,9.2,26,0.00,,,0.00,WUHU216HW,2013-09-06 21:17:00,